Location: Pandora
(40.9481°N, 83.9611°W)
Time: 12:11:24
(UTC-04:00)

Nauka - Pass Details

Date: 17 September 2021
Orbit: 417 x 423 km, 51.6° (Epoch: 24 October)

Event Time Altitude Azimuth Distance (km) Brightness Sun altitude
Rises 21:42:50 0° 257° (WSW) 2,355 ? -23.1°
Reaches altitude 10° 21:45:03 10° 267° (W) 1,495 ? -23.5°
Maximum altitude 21:48:08 32° 333° (NNW) 737 ? -24.0°
Enters shadow 21:48:13 32° 337° (NNW) 738 ? -24.0°
